Location: Bramberg
(50.0984°N, 10.6636°E)
Time: 06:20:47
(UTC+00:00)

Daily predictions for brighter satellites

Satellite Brightness Start Highest point End
(mag) Time Altitude Azimuth Time Altitude Azimuth Time Altitude Azimuth
USA 238 DEB 3.9 19:00:55 10° SSW 19:07:10 46° ESE 19:13:41 10° NE
USA 238 3.9 19:01:03 10° S 19:07:17 46° ESE 19:13:47 10° NE
SPOT 3 Rocket 3.7 19:02:51 10° SSE 19:07:57 61° ENE 19:13:05 10° N
IRIDIUM 114 4.4 19:03:06 10° S 19:08:19 84° E 19:13:34 10° N
Cosmos 1867 3.6 19:03:49 10° SSW 19:09:12 66° SE 19:14:38 10° NE
CENTAUR R/B 3.2 19:05:57 10° S 19:11:03 30° ESE 19:16:54 10° NE
Cosmos 1666 Rocket 3.6 19:07:01 10° S 19:11:15 57° E 19:15:32 10° NNE
DMSP B5D2-2 4.1 19:08:33 10° NNE 19:13:47 65° ESE 19:18:59 10° S
Cosmos 1954 Rocket 4.2 19:08:50 10° S 19:13:59 52° ESE 19:19:09 10° NNE
IRIDIUM 103 4.5 19:12:15 10° S 19:17:28 82° W 19:22:43 10° N
FREGAT/IRIS 3.7 19:15:18 10° S 19:17:48 38° W 19:20:19 10° NNW
Intercosmos 25 3.5 19:14:25 10° NNW 19:18:16 65° W 19:21:24 10° S
Cosmos 1821 Rocket 4.1 19:12:37 10° S 19:18:49 90° ESE 19:25:09 10° N
Ariane Rocket 3.8 19:13:57 10° S 19:18:54 55° W 19:23:54 10° NNW
Cosmos 405 Rocket 3.9 19:16:15 10° SE 19:19:11 23° E 19:22:11 10° NE
Cosmos 1812 4.0 19:16:02 10° NNW 19:19:42 42° W 19:23:20 10° SSW
Okean 1-7 4.4 19:18:14 10° NNE 19:21:39 22° ENE 19:25:00 10° ESE
Cosmos 1805 Rocket 4.3 19:17:31 10° SSW 19:21:54 59° WNW 19:26:21 10° N
Cosmos 407 Rocket 3.9 19:19:05 10° SSW 19:24:23 70° WNW 19:29:39 10° NNE
SJ-6B 3.8 19:22:59 10° S 19:26:52 47° W 19:30:42 10° NNW
Cosmos 2333 Rocket 4.2 19:23:43 10° N 19:27:34 18° NNE 19:31:22 10° ENE
Cosmos 1763 Rocket 3.9 19:22:56 10° NNW 19:28:10 52° ENE 19:33:12 11° SE
Cosmos 1190 Rocket 4.3 19:23:16 10° SSW 19:28:34 78° WNW 19:33:56 10° NNE
Cosmos 1437 Rocket 3.9 19:25:50 10° N 19:29:05 26° ENE 19:31:55 12° ESE
deb Kosmos-1763 4.2 19:26:09 10° SSW 19:29:46 78° WNW 19:33:27 10° NNE
Cosmos 1140 Rocket 3.7 19:25:09 10° SSW 19:30:24 78° WNW 19:35:41 10° NNE
FALCON 9 DEB 3.5 19:27:36 10° W 19:31:05 70° NNW 19:34:35 10° ENE
Resurs 1-3 3.7 19:27:30 10° SSE 19:31:54 84° WSW 19:36:20 10° NNW
H-2A R/B 4.4 19:30:41 10° NE 19:34:18 28° E 19:37:54 10° SSE
OBJECT-B 1.2 19:31:15 10° S 19:34:30 65° W 19:37:48 10° NNW
Cosmos 2084 Rocket 4.1 19:32:10 10° S 19:35:51 31° ESE 19:39:39 10° ENE
Cosmos 1633 Rocket 3.1 19:33:41 10° S 19:38:06 88° ESE 19:42:33 10° N
Cosmos 1184 Rocket 2.7 19:35:39 10° S 19:38:56 74° E 19:42:14 10° NNE
Landsat 7 4.4 19:36:27 12° SE 19:40:38 43° ENE 19:45:08 10° N
Cosmos 921 Rocket 3.0 19:36:26 10° NNW 19:40:39 81° WSW 19:44:49 10° SSE
SPOT 5 4.2 19:38:25 11° ESE 19:41:23 21° ENE 19:44:45 10° N
Cosmos 2123 Rocket 4.1 19:35:27 10° N 19:41:42 84° W 19:47:58 10° S
Cosmos 1535 Rocket 4.4 19:38:28 10° S 19:44:35 83° E 19:50:44 10° N
MetOp-B 4.2 19:40:55 10° SSE 19:46:13 65° ENE 19:51:32 10° N
Meteor 1-19 Rocket 4.3 19:44:52 10° N 19:50:15 57° ENE 19:54:58 14° SSE
Okean 1 3.4 19:48:52 10° N 19:52:54 60° ENE 19:56:08 15° SSE
Cosmos 1605 Rocket 3.9 19:46:59 10° S 19:53:01 67° E 19:59:04 10° NNE
CZ-2C R/B 3.2 19:48:15 10° N 19:53:22 59° WNW 19:58:31 10° SSW
ERBS 4.3 19:50:44 10° NW 19:53:32 24° N 19:56:20 10° ENE
USA 267 3.9 19:51:18 10° ENE 19:57:02 31° SE 20:02:43 10° S
NOSS 3-2 (A) 3.4 19:51:24 10° SW 19:57:11 86° SE 20:03:53 10° NE
Cosmos 2219 Rocket 3.9 19:53:42 10° NNW 19:58:05 22° NE 20:02:26 10° E
Meteor 2-4 Rocket 4.2 19:53:28 10° N 19:58:49 43° ENE 20:02:35 18° SE
Cosmos 540 Rocket 3.9 19:56:02 10° NNW 20:01:06 50° ENE 20:04:39 19° SE
SL-16 R/B 2.2 19:56:18 10° NNW 20:02:01 83° ENE 20:06:27 17° SSE
SL-4 R/B 2.0 19:59:54 10° W 20:03:53 70° N 20:07:24 11° E
BREEZE-M DEB (TANK) 2.5 20:01:53 10° W 20:04:38 82° S 20:11:57 10° E
Cosmos 2242 Rocket 3.5 20:01:06 10° N 20:05:33 82° E 20:09:07 15° SSE
SL-27 R/B 2.8 20:04:28 18° SSE 20:06:30 39° ESE 20:09:38 10° NE
NOSS 3-2 (C) 3.3 20:02:09 10° SSW 20:07:51 69° SE 20:14:27 10° NE
Cosmos 1470 Rocket 3.6 20:03:31 10° SSW 20:07:55 81° W 20:12:19 10° N
BREEZE-M DEB (TANK) 1.4 20:09:36 10° W 20:12:05 67° S 20:12:31 45° ESE
Cosmos 2082 Rocket 3.3 20:07:01 10° SW 20:12:31 49° NW 20:18:02 10° NNE
ERS-1 Rocket 3.2 20:16:15 22° SE 20:19:18 54° ENE 20:24:12 10° N
Cosmos 2322 Rocket 2.2 20:13:37 10° NNW 20:19:21 90° WSW 20:23:14 21° SSE
Meteor 1-14 Rocket 4.3 20:13:56 10° S 20:19:46 68° E 20:25:43 10° NNE
Cosmos 967 Rocket 4.5 20:16:36 10° NW 20:23:01 86° NE 20:27:10 23° SE
Cosmos 1850 Rocket 3.9 20:19:32 10° SSW 20:24:50 81° ESE 20:30:07 10° NNE
Cosmos 1500 3.6 20:25:36 32° SE 20:26:45 41° E 20:30:18 10° NNE
Cosmos 841 Rocket 3.5 20:21:31 10° NNW 20:26:48 81° ENE 20:29:56 25° SSE
SPOT 1/Viking Rocket 3.5 20:23:32 20° SSE 20:27:14 88° E 20:32:31 10° NNW
Cosmos 1536 4.5 20:27:23 18° E 20:27:25 18° E 20:30:10 10° NE
Cosmos 2360 Rocket 2.4 20:22:53 10° NNW 20:28:33 64° ENE 20:31:48 26° SE
Meteor 1-18 Rocket 4.5 20:23:40 10° NNW 20:29:13 68° W 20:33:51 15° S
USA 276 3.0 20:26:46 10° W 20:29:42 34° SSW 20:30:10 32° S
Terra 2.4 20:27:56 26° ESE 20:30:10 43° ENE 20:34:41 10° N
X-37B 2.4 20:28:08 10° WSW 20:30:22 19° SSW 20:30:22 19° SSW
Okean 3 4.0 20:26:23 10° N 20:30:31 43° ENE 20:32:07 30° ESE
IGS 5A 3.8 20:29:39 20° S 20:32:28 64° W 20:36:37 10° NNW
Cosmos 2237 4.2 20:27:01 10° NNW 20:32:45 74° ENE 20:35:58 27° SE
ATLAS 3B R/B 2.9 20:26:55 10° S 20:33:02 42° ESE 20:39:14 10° NE
Cosmos 1238 Rocket 3.4 20:30:44 10° SSW 20:33:30 39° WNW 20:36:27 10° N
USA 234 3.4 20:29:00 18° ESE 20:34:05 75° NNE 20:40:38 10° WNW
Cosmos 1980 Rocket 4.4 20:32:45 10° NW 20:36:41 20° W 20:40:36 10° SW
Cosmos 1666 3.8 20:37:36 26° E 20:37:36 26° E 20:40:46 10° NNE
COSMOS 2487 4.5 20:39:02 15° ENE 20:39:02 15° ENE 20:40:10 10° NE
Cosmos 44 3.7 20:33:01 10° NW 20:37:51 57° WSW 20:40:36 26° SSE
Lacrosse 5 3.1 20:34:53 10° WNW 20:39:17 30° SW 20:41:50 19° S
Resurs 01 Rocket 3.4 20:35:49 10° SSW 20:39:38 28° W 20:43:30 10° NW
Iridium 4 Rocket 3.5 20:38:44 33° SE 20:39:51 41° E 20:43:46 10° NNE
CARTOSAT-1 3.5 20:40:31 32° SSE 20:42:29 82° ENE 20:46:51 10° NNW
GP-B 4.4 20:39:35 10° NNW 20:43:45 40° W 20:47:53 10° SSW
CZ-4B DEB 4.4 20:46:38 46° S 20:47:31 78° WSW 20:50:52 10° NNW
Cosmos 2061 Rocket 4.2 20:50:45 29° SSE 20:53:39 51° E 20:59:37 10° NNE
Cosmos 1814 Rocket 4.0 20:49:14 10° NNW 20:54:27 76° WSW 20:56:56 32° S
Spot 2 Rocket 4.3 20:51:18 17° SSW 20:54:56 47° W 20:59:51 10° NNW
COSMOS 2428 3.6 20:49:34 10° NNW 20:54:58 40° NE 20:57:48 24° ESE
Cosmos 405 Rocket 4.4 20:51:41 10° SW 20:55:02 31° WNW 20:58:27 10° N
USA 238 DEB 4.4 20:51:31 10° WSW 20:58:04 55° NW 21:04:58 10° NE
USA 238 4.4 20:51:37 10° WSW 20:58:10 55° NW 21:05:04 10° NE
Cosmos 1802 Rocket 4.0 20:54:58 26° SSE 20:58:38 66° E 21:04:53 10° NNE
Cosmos 2237 Rocket 4.0 20:54:40 10° NNW 20:59:05 23° NE 21:02:46 13° E
Okean 1-7 4.0 20:55:20 10° NNW 20:59:25 43° W 21:01:51 21° SSW
Cosmos 1869 Rocket 3.6 20:57:44 27° SSW 21:00:08 83° W 21:04:39 10° N
CENTAUR R/B 2.9 20:54:58 10° SW 21:01:05 71° NW 21:08:26 10° NE
Cosmos 44 Rocket 3.9 20:57:14 10° NNW 21:02:04 49° NE 21:04:15 30° E
Cosmos 1437 Rocket 4.4 21:02:02 10° NNW 21:05:18 28° W 21:07:19 17° SW
FALCON 9 DEB 3.9 21:04:58 10° WNW 21:08:23 51° N 21:09:36 33° ENE
Cosmos 1271 Rocket 4.0 21:05:59 10° N 21:09:15 26° ENE 21:09:24 26° ENE
Cosmos 2333 Rocket 2.5 21:07:21 10° NNW 21:13:06 60° ENE 21:15:19 36° ESE
Cosmos 1674 Rocket 4.0 21:09:07 10° N 21:13:18 45° ENE 21:13:55 42° E
ATLAS 5 CENTAUR R/B 1.9 21:10:46 10° NW 21:13:27 88° SW 21:14:58 43° SE
Cosmos 2084 Rocket 4.5 21:11:07 10° WSW 21:15:13 47° NW 21:19:25 10° NE
SPOT 5 3.2 21:17:38 35° SSW 21:19:08 52° W 21:23:31 10° NNW
Cosmos 1066 Rocket 4.2 21:14:03 10° N 21:19:44 69° ENE 21:21:30 43° SE
Meteor 1-5 Rocket 4.4 21:18:35 22° SSW 21:22:35 76° WNW 21:28:29 10° N
Cosmos 1486 Rocket 4.3 21:22:07 43° ESE 21:22:35 45° ESE 21:27:31 10° NE
Cosmos 1733 Rocket 2.9 21:29:41 64° SE 21:30:06 69° E 21:34:32 10° NNE
Cosmos 1356 3.5 21:30:29 72° NW 21:30:29 72° NW 21:33:44 10° N
ERBS 2.9 21:27:05 10° NW 21:30:13 51° NNE 21:30:13 51° NNE
Meteor 1-11 Rocket 3.7 21:31:46 36° SSW 21:34:16 87° WNW 21:40:08 10° NNE
Tsikada Rocket 3.9 21:30:06 10° N 21:36:29 89° ENE 21:38:46 43° S
Cosmos 968 Rocket 3.6 21:37:25 50° ESE 21:37:41 51° ESE 21:42:39 10° NNE
Lacrosse 4 Rocket 1.2 21:37:37 76° S 21:37:55 84° SE 21:42:07 10° NE
Cosmos 2227 Rocket 4.4 21:40:11 10° E 21:40:11 10° E 21:40:23 10° E
ALOS 2 3.9 21:39:37 26° ENE 21:40:09 27° ENE 21:43:51 10° N
USA 267 3.1 21:34:02 10° ENE 21:40:37 85° SSE 21:47:11 10° WSW
Cosmos 2219 Rocket 2.1 21:37:10 10° NNW 21:42:54 85° ENE 21:44:23 52° SE
SL-4 R/B 2.1 21:39:48 10° WNW 21:42:59 59° WNW 21:42:59 59° WNW
SL-16 R/B 4.2 21:41:37 10° WNW 21:45:25 19° W 21:48:20 13° SW
Cosmos 1242 Rocket 3.2 21:47:34 10° NNW 21:50:53 51° W 21:50:53 51° W
Meteor 1-23 Rocket 4.4 21:49:48 10° NNW 21:55:36 69° W 21:57:14 47° SSW
Cosmos 2322 4.0 21:50:39 10° NW 21:56:12 58° WSW 21:57:25 47° SSW
Cosmos 1725 Rocket 4.2 21:55:18 34° SSW 21:58:11 70° W 22:04:33 10° N
Spot 4 3.8 21:58:19 66° ESE 21:58:50 73° ENE 22:03:40 10° N
Cosmos 1833 4.5 21:58:11 24° SW 22:01:38 66° WNW 22:07:18 10° NNE
Cosmos 1842 4.2 21:58:37 10° N 22:01:52 40° NE 22:01:52 40° NE
Cosmos 2322 Rocket 4.3 21:59:05 10° WNW 22:02:36 17° W 22:05:03 13° SW
Cosmos 1536 3.6 22:03:04 42° W 22:03:31 44° WNW 22:07:21 10° N
Cosmos 1908 Rocket 3.8 22:04:49 58° ENE 22:04:49 58° ENE 22:08:43 10° NNE
Cosmos 1378 Rocket 3.5 22:00:17 10° NNW 22:04:45 73° W 22:04:52 72° WSW
Cosmos 2344 4.5 21:59:01 10° NW 22:07:56 67° NE 22:17:17 19° ESE
Terra 3.3 22:06:49 24° WSW 22:08:05 28° W 22:12:10 10° NW
Cosmos 2360 Rocket 3.6 22:07:34 10° NW 22:12:06 25° WSW 22:13:33 23° SW
COSMOS 2487 3.9 22:12:29 34° WNW 22:12:29 34° WNW 22:15:40 10° N
Cosmos 1666 4.3 22:12:27 26° W 22:13:06 27° WNW 22:16:23 10° N
SL-16 R/B 3.7 22:09:49 10° NNW 22:14:45 29° NE 22:17:41 19° E
USA 234 3.5 22:16:20 44° SSW 22:17:22 47° SW 22:23:40 10° WNW
MOS 1-B Rocket 3.8 22:15:59 10° NNE 22:21:36 77° WNW 22:23:10 49° SW
Cosmos 1378 4.3 22:18:19 10° NNW 22:21:16 39° WNW 22:21:16 39° WNW
ATLAS 3B R/B 3.2 22:17:07 10° WSW 22:23:36 56° NW 22:30:12 10° NE
Cosmos 1354 Rocket 3.9 22:23:58 72° SE 22:24:13 73° ESE 22:29:34 10° NNE
Cosmos 1975 Rocket 3.2 22:23:04 10° N 22:27:17 67° NE 22:27:17 67° NE
Cosmos 1544 4.1 22:30:39 44° N 22:30:39 44° N 22:33:16 10° N
Cosmos 2297 Rocket 3.2 22:32:12 31° E 22:32:12 31° E 22:36:33 10° NE
Meteor 1-21 4.1 22:26:21 10° N 22:32:11 79° ENE 22:33:00 65° SE
Thor Agena Rocket 3.4 22:29:27 10° NNE 22:34:35 87° WNW 22:35:03 75° SSW
Cosmos 1743 3.6 22:35:21 46° NW 22:35:21 46° NW 22:38:43 10° N
Okean 2 3.8 22:30:58 10° NNW 22:34:30 61° NW 22:34:30 61° NW
Cosmos 1975 3.4 22:36:14 54° NNE 22:36:14 54° NNE 22:39:28 10° NNE
Meteor 2-9 Rocket 4.2 22:35:06 64° SE 22:35:37 68° E 22:41:23 10° NNE
Cosmos 1980 3.6 22:30:29 10° NNW 22:36:12 84° ENE 22:36:58 68° SE
Cosmos 2233 Rocket 4.4 22:34:08 38° SW 22:36:25 57° WNW 22:42:40 10° N
Nimbus 7 Rocket 4.4 22:30:37 10° NNE 22:36:29 65° ESE 22:37:08 60° SE
COSMOS 2428 3.2 22:33:54 10° NW 22:39:20 44° WSW 22:39:48 43° WSW
Timation 2 Rocket 3.9 22:39:51 59° SE 22:40:13 60° ESE 22:46:08 10° NE
Cosmos 1025 Rocket 4.0 22:38:51 10° N 22:42:31 38° ENE 22:42:31 38° ENE
Cosmos 44 Rocket 4.4 22:38:59 10° NW 22:42:56 34° WSW 22:42:56 34° WSW
Cosmos 2237 Rocket 2.0 22:38:16 10° NNW 22:43:58 89° ENE 22:44:34 73° SSE
Cosmos 1271 Rocket 4.4 22:41:55 10° NNW 22:44:31 26° WNW 22:44:31 26° WNW
Cosmos 2219 3.6 22:46:31 46° E 22:46:31 46° E 22:51:33 10° NE
SJ 16-02 3.8 22:47:38 12° ENE 22:47:38 12° ENE 22:48:35 10° ENE
Cosmos 1464 Rocket 3.9 22:46:12 63° SSE 22:47:10 75° E 22:53:21 10° NNE
NOSS 0 Rocket 4.0 22:44:57 10° NW 22:51:06 60° WSW 22:51:50 56° SW
Okean 2 Rocket 3.9 22:53:44 41° ENE 22:53:44 41° ENE 22:57:22 10° NNE
CENTAUR R/B 4.4 22:47:07 10° WNW 22:53:04 33° NNW 22:59:57 10° NE
Nadezhda 4 Rocket 4.0 22:47:31 10° N 22:53:49 73° E 22:54:56 59° SE
Cosmos 2333 Rocket 3.5 22:52:13 10° NW 22:56:59 27° WSW 22:57:19 27° WSW
Cosmos 1503 Rocket 4.5 22:58:15 46° WSW 22:59:26 56° WNW 23:04:44 10° NNE
Sich 1 Rocket 3.9 23:15:13 64° NNW 23:15:13 64° NNW 23:19:05 10° N
DNEPR-1 R/B 4.0 23:09:09 10° NW 23:14:42 67° WSW 23:14:42 67° WSW
Cosmos 1092 Rocket 4.0 23:09:22 10° N 23:15:35 68° ENE 23:16:44 56° SE
ALOS 2 3.6 23:17:00 37° WNW 23:17:00 37° WNW 23:20:29 10° NNW
Lacrosse 4 Rocket 3.9 23:14:05 10° W 23:17:08 19° NW 23:20:09 10° N
Helios 1A 3.4 23:18:09 62° NNW 23:18:09 62° NNW 23:21:42 10° NNW
Cosmos 773 Rocket 4.5 23:13:05 10° NNW 23:17:38 46° W 23:17:38 46° W
Cosmos 1626 4.5 23:16:08 10° NNE 23:18:35 17° ENE 23:18:35 17° ENE
Cosmos 2034 Rocket 3.9 23:19:27 64° SSW 23:20:31 88° W 23:26:55 10° N
YAOGAN 11 4.3 23:22:19 76° N 23:22:19 76° N 23:26:35 10° NNW
Cosmos 2227 Rocket 2.2 23:22:00 64° ESE 23:22:05 64° ESE 23:27:41 10° NE
Cosmos 1707 3.8 23:18:59 10° NNW 23:21:46 42° NNW 23:21:46 42° NNW
USA 267 3.9 23:17:06 10° ENE 23:23:26 55° NNW 23:29:46 10° W
Cosmos 2219 Rocket 4.0 23:22:23 10° WNW 23:26:05 18° W 23:26:05 18° W
Cosmos 2151 Rocket 4.0 23:26:48 58° NE 23:26:48 58° NE 23:30:32 10° NNE
Meteor 1-12 Rocket 4.2 23:28:42 70° S 23:29:28 87° E 23:35:33 10° NNE
Cosmos 1536 Rocket 3.9 23:25:58 10° N 23:29:39 63° N 23:29:39 63° N
Resurs 1-4 Rocket 4.2 23:31:27 10° NE 23:34:24 15° E 23:35:32 14° E
Meteor 2-5 Rocket 4.3 23:30:15 10° N 23:35:40 48° ENE 23:36:53 41° ESE
Cosmos 1538 Rocket 4.4 23:30:58 10° NNW 23:35:35 50° W 23:35:35 50° W
Cosmos 158 Rocket 4.1 23:40:36 10° NNW 23:46:01 75° ENE 23:46:39 66° ESE
Cosmos 1607 4.0 23:40:32 10° NW 23:46:55 63° WSW 23:47:26 61° SSW
Cosmos 2082 3.7 23:48:47 60° ESE 23:48:59 60° ESE 23:54:31 10° NE
Cosmos 1375 Rocket 4.5 23:48:19 62° S 23:49:26 77° SE 23:56:04 10° NE
Helios 1B rocket 3.1 23:50:58 10° NNE 23:54:18 48° ENE 23:54:18 48° ENE
